Baton Rouge, LA

9:40 PM CDT on July 28, 2016 (GMT -0500)
Baton Rouge Metro-Ryan

Weather History for KBTR - March, 2013

Change the Weather History Date:

Monday, March 11, 2013

  Actual Average Record
Temperature  
Mean Temperature 52 °F 60 °F  
Max Temperature 59 °F 72 °F 87 °F (1904)
Min Temperature 44 °F 49 °F 28 °F (1934)
Degree Days  
Heating Degree Days 13 6  
Month to date heating degree days 137 77  
Since 1 July heating degree days 1309 1412  
Cooling Degree Days 0 2  
Month to date cooling degree days 2 15  
Year to date cooling degree days 27 46  
Moisture  
Dew Point 45 °F    
Average Humidity 72    
Maximum Humidity 100    
Minimum Humidity 43    
Precipitation  
Precipitation 1.90 in 0.13 in 3.21 in (2016)
Month to date precipitation 2.34 1.63  
Year to date precipitation 24.38 12.39  
Snow  
Snow 0.00 in - - ()
Month to date snowfall 0.0  
Since 1 July snowfall 0.0  
Snow Depth 0.00 in    
Sea Level Pressure  
Sea Level Pressure 29.96 in    
Wind  
Wind Speed 7 mph (NW)    
Max Wind Speed 17 mph    
Max Gust Speed 24 mph    
Visibility 6 miles    
Events Rain    
T = Trace of Precipitation, MM = Missing Value Source: NWS Daily Summary

Daily Weather History Graph

Daily Weather History Graph

Search for Another Location

Airport or City:

Trip Planner

Search our weather history database for the weather conditions in past years. The results will help you decide how hot, cold, wet, or windy it might be!

Date:

Astronomy

Mar. 11, 2013 Rise Set
Actual Time 7:18 AM CDT 7:10 PM CDT
Civil Twilight 6:55 AM CDT 7:34 PM CDT
Nautical Twilight 6:27 AM CDT 8:02 PM CDT
Astronomical Twilight 5:59 AM CDT 8:30 PM CDT
Moon 6:54 AM CDT (3/11) 7:18 PM CDT (3/11)
Length of Visible Light 12h 39m
Length of Day
11h 51m
Waning Crescent, 0% of the Moon is Illuminated
Mar 11
Waning Crescent
Mar 11
New
Mar 19
First Quarter
Mar 27
Full
Apr 2
Last Quarter

Hourly Weather History & Observations

Time (CDT) Temp. Windchill Dew Point Humidity Pressure Visibility Wind Dir Wind Speed Gust Speed Precip Events Conditions
12:08 AM 55.4 °F - 53.6 °F 94% 29.96 in 3.0 mi NW 8.1 mph - 0.07 in Rain Heavy Rain
12:21 AM 53.6 °F - 53.6 °F 100% 29.96 in 2.5 mi NNW 8.1 mph 18.4 mph 0.18 in Rain Heavy Rain
12:31 AM 53.6 °F - 53.6 °F 100% 29.93 in 3.0 mi NNW 11.5 mph 18.4 mph 0.23 in Rain Heavy Rain
12:49 AM 53.6 °F - 53.6 °F 100% 29.95 in 4.0 mi Variable 3.5 mph - 0.33 in Rain Heavy Rain
12:53 AM 54.0 °F - 53.1 °F 97% 29.95 in 3.0 mi NNW 5.8 mph - 0.34 in Rain Rain
12:56 AM 53.6 °F - 53.6 °F 100% 29.95 in 3.0 mi WNW 4.6 mph - 0.04 in Rain Heavy Rain
1:06 AM 53.6 °F - 53.6 °F 100% 29.93 in 4.0 mi NNE 4.6 mph - 0.08 in Rain Heavy Rain
1:17 AM 53.6 °F - 51.8 °F 94% 29.92 in 9.0 mi North 3.5 mph - 0.09 in Rain Light Rain
1:31 AM 53.6 °F - 53.6 °F 100% 29.93 in 10.0 mi Calm Calm - 0.09 in Rain Light Rain
1:35 AM 53.6 °F - 53.6 °F 100% 29.92 in 7.0 mi Variable 4.6 mph - 0.09 in Rain Light Rain
1:48 AM 53.6 °F - 51.8 °F 94% 29.95 in 4.0 mi Calm Calm - 0.15 in Rain Rain
1:53 AM 54.0 °F - 53.1 °F 97% 29.93 in 4.0 mi Variable 3.5 mph - 0.17 in Rain Rain
1:58 AM 53.6 °F - 53.6 °F 100% 29.93 in 2.5 mi North 4.6 mph - 0.04 in Rain Heavy Rain
2:10 AM 53.6 °F - 51.8 °F 94% 29.94 in 2.0 mi NW 5.8 mph - 0.16 in Rain Heavy Rain
2:19 AM 53.6 °F - 51.8 °F 94% 29.93 in 4.0 mi Calm Calm - 0.22 in Rain Heavy Rain
2:32 AM 53.6 °F - 51.8 °F 94% 29.93 in 7.0 mi Calm Calm - 0.24 in Rain Light Rain
2:53 AM 53.1 °F - 52.0 °F 96% 29.93 in 6.0 mi NW 6.9 mph - 0.29 in Rain Light Rain
3:07 AM 53.6 °F - 51.8 °F 94% 29.93 in 7.0 mi WNW 8.1 mph - 0.00 in Rain Light Rain
3:50 AM 48.2 °F - 48.2 °F 100% 29.95 in 2.5 mi NNW 12.7 mph 23.0 mph 0.24 in Rain Heavy Rain
3:53 AM 48.9 °F - 46.0 °F 90% 29.95 in 3.0 mi NNW 17.3 mph 23.0 mph 0.25 in Rain Rain
4:12 AM 46.4 °F 40.7 °F 44.6 °F 93% 29.94 in 3.0 mi NNW 12.7 mph 23.0 mph 0.12 in Rain Rain
4:24 AM 44.6 °F 38.4 °F 42.8 °F 93% 29.97 in 1.8 mi NW 12.7 mph 20.7 mph 0.27 in Rain Heavy Rain
4:35 AM 44.6 °F 38.4 °F 42.8 °F 93% 29.98 in 2.0 mi NW 12.7 mph 18.4 mph 0.44 in Rain Heavy Rain
4:51 AM 44.6 °F 39.2 °F 42.8 °F 93% 29.99 in 3.0 mi NW 10.4 mph 18.4 mph 0.57 in Rain Heavy Rain
4:53 AM 44.1 °F 38.6 °F 42.1 °F 93% 30.00 in 3.0 mi NW 10.4 mph 18.4 mph 0.58 in Rain Heavy Rain
5:53 AM 44.1 °F 39.5 °F 42.1 °F 93% 29.97 in 4.0 mi NNW 8.1 mph - 0.30 in Rain Rain
6:53 AM 44.1 °F 40.8 °F 42.1 °F 93% 29.97 in 10.0 mi NNW 5.8 mph - 0.10 in Rain Light Rain
7:53 AM 44.1 °F 42.5 °F 42.1 °F 93% 29.99 in 5.0 mi Variable 3.5 mph - 0.14 in Rain Rain
8:53 AM 44.1 °F 41.5 °F 41.0 °F 89% 30.03 in 5.0 mi WNW 4.6 mph - 0.03 in Rain Rain
9:53 AM 45.0 °F 43.5 °F 42.1 °F 90% 30.02 in 10.0 mi Variable 3.5 mph - 0.07 in Rain Light Rain
10:53 AM 46.0 °F 43.1 °F 39.0 °F 76% 30.03 in 10.0 mi NW 5.8 mph - 0.02 in   Scattered Clouds
11:53 AM 51.1 °F - 39.9 °F 66% 30.02 in 10.0 mi WNW 10.4 mph - N/A   Clear
12:53 PM 54.0 °F - 39.0 °F 57% 29.99 in 10.0 mi WNW 10.4 mph - N/A   Clear
1:53 PM 55.9 °F - 39.0 °F 53% 29.96 in 10.0 mi WNW 12.7 mph 18.4 mph N/A   Clear
2:53 PM 55.9 °F - 37.9 °F 51% 29.95 in 10.0 mi West 16.1 mph 23.0 mph N/A   Clear
3:53 PM 57.0 °F - 37.0 °F 47% 29.94 in 10.0 mi West 9.2 mph - N/A   Clear
4:53 PM 57.9 °F - 37.0 °F 46% 29.92 in 10.0 mi WNW 9.2 mph 16.1 mph N/A   Clear
5:53 PM 57.9 °F - 35.1 °F 42% 29.93 in 10.0 mi WNW 8.1 mph - N/A   Clear
6:53 PM 55.9 °F - 34.0 °F 44% 29.95 in 10.0 mi NNW 5.8 mph - N/A   Clear
7:53 PM 53.1 °F - 35.1 °F 50% 29.97 in 10.0 mi NW 5.8 mph - N/A   Clear
8:53 PM 51.1 °F - 35.1 °F 54% 30.00 in 10.0 mi NNW 3.5 mph - N/A   Clear
9:53 PM 48.0 °F - 39.0 °F 71% 30.04 in 10.0 mi Calm Calm - N/A   Clear
10:53 PM 48.9 °F - 35.1 °F 59% 30.05 in 10.0 mi NW 4.6 mph - N/A   Clear
11:53 PM 46.9 °F - 35.1 °F 63% 30.06 in 10.0 mi Calm Calm - N/A   Clear